DW7423 Weather Reports


Display with metric or nautical units.
time (UTC)temp
F
wind
direction
speed
MPH
gust
MPH
rain 1hr
in
rain 24hr
in
rain mn
in
humidity
%
barometer
mb
20260509021502 76 136 0.0 4.0 0.00 0.00 0.00 51 1008.6
20260509020112 76 174 3.0 6.0 0.00 0.00 0.00 52 1008.3
20260509014558 76 138 0.0 5.0 0.00 0.00 0.00 54 1008.2
20260509013102 77 196 3.0 6.0 0.00 0.00 0.00 55 1008.3
20260509011602 77 203 2.0 8.0 0.00 0.00 0.00 57 1008.2
20260509010100 77 173 0.0 5.0 0.00 0.00 0.00 59 1008.1
20260509004555 77 174 4.0 8.0 0.00 0.00 0.00 60 1008.0
20260509003058 78 166 1.0 6.0 0.00 0.00 0.00 61 1008.0
20260509001554 78 169 0.0 7.0 0.00 0.00 0.00 62 1008.1
20260509000053 78 165 4.0 9.0 0.00 0.00 0.00 63 1008.2
20260508234559 79 183 1.0 9.0 0.00 0.00 0.00 64 1008.1
20260508233100 79 178 1.0 9.0 0.00 0.00 0.00 64 1007.9
20260508231552 79 200 4.0 8.0 0.00 0.00 0.00 65 1008.0
20260508230054 79 226 2.0 8.0 0.00 0.00 0.00 66 1008.2
20260508224554 79 188 5.0 9.0 0.00 0.00 0.00 66 1008.0
20260508223050 79 180 4.0 10.0 0.00 0.00 0.00 67 1008.1
20260508221553 80 169 1.0 8.0 0.00 0.00 0.00 67 1008.2
20260508220052 80 200 2.0 7.0 0.00 0.00 0.00 67 1008.2
20260508214547 80 190 2.0 9.0 0.00 0.00 0.00 66 1008.3
20260508213047 79 182 2.0 6.0 0.00 0.00 0.00 67 1008.4
20260508211542 79 177 3.0 9.0 0.00 0.00 0.00 67 1008.6
20260508210040 79 172 2.0 10.0 0.00 0.00 0.00 67 1008.9
20260508204539 79 190 2.0 8.0 0.00 0.00 0.00 67 1009.1
20260508203037 79 128 0.0 6.0 0.00 0.00 0.00 67 1009.2
20260508201535 79 192 1.0 6.0 0.00 0.00 0.00 67 1009.4
20260508200035 80 65 3.0 9.0 0.00 0.00 0.00 67 1009.5
20260508194531 80 182 2.0 8.0 0.00 0.00 0.00 66 1009.7
20260508193029 79 92 3.0 7.0 0.00 0.00 0.00 66 1009.9
20260508191529 79 173 1.0 7.0 0.00 0.00 0.00 67 1010.2
20260508190024 78 180 1.0 7.0 0.00 0.00 0.00 67 1010.3
20260508184523 78 98 1.0 5.0 0.00 0.00 0.00 66 1010.4
20260508183020 78 78 0.0 5.0 0.00 0.00 0.00 67 1010.7
20260508181517 77 178 3.0 7.0 0.00 0.00 0.00 66 1011.0
20260508180014 77 111 1.0 6.0 0.00 0.00 0.00 67 1011.3
20260508174513 77 123 0.0 6.0 0.00 0.00 0.00 67 1011.3
20260508173011 77 182 1.0 6.0 0.00 0.00 0.00 67 1011.4
20260508171510 76 110 0.0 7.0 0.00 0.00 0.00 66 1011.7
20260508170006 76 92 0.0 5.0 0.00 0.00 0.00 67 1011.6
20260508164503 74 48 0.0 4.0 0.00 0.00 0.00 67 1011.8
20260508163108 73 37 1.0 9.0 0.00 0.00 0.00 67 1012.0
20260508161559 72 35 0.0 4.0 0.00 0.00 0.00 67 1012.4
20260508160051 70 165 0.0 0.0 0.00 0.00 0.00 66 1012.8
20260508154548 69 165 0.0 2.0 0.00 0.00 0.00 66 1012.7
20260508153056 69 163 0.0 2.0 0.00 0.00 0.00 66 1013.0
20260508151541 67 173 1.0 4.0 0.00 0.00 0.00 65 1013.0
20260508150037 66 173 0.0 4.0 0.00 0.00 0.00 64 1013.3
20260508144535 66 133 0.0 4.0 0.00 0.00 0.00 63 1013.3
20260508143055 65 98 0.0 4.0 0.00 0.00 0.00 63 1013.3
20260508141531 64 99 0.0 6.0 0.00 0.00 0.00 62 1013.2
20260508140028 64 78 1.0 4.0 0.00 0.00 0.00 61 1013.2
20260508134533 63 40 2.0 6.0 0.00 0.00 0.00 60 1013.4
20260508133024 0 0.0 0.0 0.00 0.00 0.00 1013.5
20260508131519 0 0.0 0.0 0.00 0.00 0.00 1013.6
20260508130013 0 0.0 0.0 0.00 0.00 0.00 1013.3
20260508124510 0 0.0 0.0 0.00 0.00 0.00 1013.5
20260508123008 0 0.0 0.0 0.00 0.00 0.00 1013.6
20260508121502 0 0.0 0.0 0.00 0.00 0.00 1013.6
20260508120112 0 0.0 0.0 0.00 0.00 0.00 1013.8
20260508114600 0 0.0 0.0 0.00 0.00 0.00 1014.1
20260508113049 0 0.0 0.0 0.00 0.00 0.00 1014.1
20260508111545 62 38 0.0 1.0 0.00 0.00 0.00 59 1014.1
20260508110048 62 38 0.0 3.0 0.00 0.00 0.00 59 1014.0
20260508104544 62 38 0.0 4.0 0.00 0.00 0.00 58 1013.9
20260508103048 62 40 0.0 3.0 0.00 0.00 0.00 58 1014.1
20260508101543 62 36 1.0 4.0 0.00 0.00 0.00 56 1013.9
20260508100058 62 22 0.0 2.0 0.00 0.00 0.00 57 1013.9
20260508094543 62 46 1.0 4.0 0.00 0.00 0.00 58 1013.7
20260508093041 63 53 0.0 0.0 0.00 0.00 0.00 60 1014.2
20260508091601 63 53 0.0 0.0 0.00 0.00 0.00 63 1014.2
20260508090042 63 53 0.0 1.0 0.00 0.00 0.00 66 1013.7
20260508084536 62 54 1.0 3.0 0.00 0.00 0.00 67 1013.7
20260508083035 62 54 0.0 2.0 0.00 0.00 0.00 67 1014.0
20260508081545 62 54 0.0 0.0 0.00 0.00 0.00 66 1014.2
20260508080033 62 54 0.0 0.0 0.00 0.00 0.00 66 1014.2
20260508074535 62 54 0.0 0.0 0.00 0.00 0.00 66 1014.0
20260508073034 62 54 0.0 2.0 0.00 0.00 0.00 66 1014.1
20260508071536 62 54 1.0 4.0 0.00 0.00 0.00 67 1013.8
20260508070030 62 45 1.0 4.0 0.00 0.00 0.00 67 1014.0
20260508064530 62 42 0.0 3.0 0.00 0.00 0.00 67 1014.5
20260508063026 62 30 0.0 4.0 0.00 0.00 0.00 67 1014.8
20260508061525 62 32 0.0 3.0 0.00 0.00 0.00 67 1014.9
20260508060028 62 27 0.0 5.0 0.00 0.00 0.00 67 1014.9
20260508054602 62 46 1.0 3.0 0.00 0.00 0.00 67 1014.7
20260508053030 62 46 0.0 0.0 0.00 0.00 0.00 67 1015.1
20260508051521 62 46 0.0 2.0 0.00 0.00 0.00 68 1014.7
20260508050017 62 47 1.0 3.0 0.00 0.00 0.00 68 1014.7
20260508044517 62 34 0.0 3.0 0.00 0.00 0.00 68 1015.3
20260508043016 62 55 0.0 4.0 0.00 0.00 0.00 69 1014.3
20260508041516 62 56 0.0 1.0 0.00 0.00 0.00 69 1014.7
20260508040016 63 56 0.0 0.0 0.00 0.00 0.00 69 1015.0
20260508034519 63 56 1.0 4.0 0.00 0.00 0.00 69 1015.0
20260508033024 63 65 0.0 2.0 0.00 0.00 0.00 69 1015.7
20260508031515 63 65 0.0 0.0 0.00 0.00 0.00 69 1015.7
20260508030014 63 65 0.0 2.0 0.00 0.00 0.00 69 1015.4
20260508024513 63 94 1.0 3.0 0.00 0.00 0.00 69 1014.9
20260508023012 63 118 0.0 4.0 0.00 0.00 0.00 69 1014.3